GW7154 Weather Reports


time (UTC)temp
F
wind
direction
speed
knots
gust
knots
rain 1hr
in
rain 24hr
in
rain mn
in
humidity
%
barometer
mb
20260504081731 45 312 0.0 0.0 0.00 0.00 0.00 86 1013.2
20260504081227 45 312 0.0 0.0 0.00 0.00 0.00 86 1013.2
20260504080724 45 312 0.0 0.0 0.00 0.00 0.00 85 1013.2
20260504080220 45 312 0.0 0.0 0.00 0.00 0.00 85 1013.2
20260504070148 45 190 0.0 0.0 0.00 0.00 0.00 80 1012.9
20260504060108 44 16 0.0 0.0 0.00 0.00 0.00 76 1013.2
20260504050537 44 16 0.0 0.0 0.00 0.00 0.00 73 1013.2
20260504045530 44 16 0.0 0.0 0.00 0.00 0.00 73 1013.5
20260504045026 43 16 0.0 0.0 0.00 0.00 0.00 73 1013.2
20260504044523 44 16 0.0 0.0 0.00 0.00 0.00 73 1013.2
20260504044020 44 16 0.0 0.0 0.00 0.00 0.00 72 1013.2
20260504043517 44 12 0.0 0.0 0.00 0.00 0.00 72 1013.2
20260504043015 44 16 0.0 0.0 0.00 0.00 0.00 71 1013.2
20260504042511 44 16 0.0 0.0 0.00 0.00 0.00 71 1013.2
20260504042008 44 16 0.0 0.0 0.00 0.00 0.00 71 1013.2
20260504041504 44 16 0.0 0.0 0.00 0.00 0.00 70 1012.9
20260504041000 44 16 0.0 0.0 0.00 0.00 0.00 72 1012.9
20260504040458 44 16 0.0 0.0 0.00 0.00 0.00 70 1013.2
20260504035954 44 16 0.0 0.0 0.00 0.00 0.00 69 1013.2
20260504035452 45 16 0.0 0.0 0.00 0.00 0.00 69 1012.9
20260504034948 44 16 0.0 0.0 0.00 0.00 0.00 70 1012.9
20260504034446 44 16 0.0 0.0 0.00 0.00 0.00 69 1012.9
20260504033943 45 16 0.0 0.0 0.00 0.00 0.00 68 1012.9
20260504033440 44 16 0.0 0.0 0.00 0.00 0.00 69 1012.9
20260504032937 45 16 0.0 0.0 0.00 0.00 0.00 69 1012.9
20260504032434 45 16 0.0 0.0 0.00 0.00 0.00 68 1012.5
20260504031931 45 16 0.0 0.0 0.00 0.00 0.00 69 1012.5
20260504031428 45 16 0.0 0.0 0.00 0.00 0.00 69 1012.5
20260504030925 45 16 0.0 0.0 0.00 0.00 0.00 67 1012.5
20260504030421 46 12 0.0 0.0 0.00 0.00 0.00 66 1012.5
20260504025917 46 16 0.0 0.0 0.00 0.00 0.00 66 1012.5
20260504025414 45 16 0.0 0.0 0.00 0.00 0.00 66 1012.5
20260504024911 45 16 0.0 0.0 0.00 0.00 0.00 68 1012.5
20260504024408 46 16 0.0 0.0 0.00 0.00 0.00 68 1012.5
20260504023905 46 16 0.0 0.0 0.00 0.00 0.00 63 1012.5
20260504023402 46 16 0.0 0.0 0.00 0.00 0.00 67 1012.5
20260504022857 46 16 0.0 0.0 0.00 0.00 0.00 62 1012.5
20260504022354 46 16 0.0 0.0 0.00 0.00 0.00 66 1012.5
20260504021851 47 16 0.0 0.0 0.00 0.00 0.00 62 1012.9
20260504021348 47 16 0.0 0.0 0.00 0.00 0.00 61 1012.5
20260504020845 47 16 0.0 0.0 0.00 0.00 0.00 60 1012.5
20260504020342 47 16 0.0 0.0 0.00 0.00 0.00 61 1012.5
20260504015838 47 16 0.0 0.0 0.00 0.00 0.00 61 1012.5
20260504015334 47 16 0.0 0.0 0.00 0.00 0.00 60 1012.5
20260504014830 47 16 0.0 0.0 0.00 0.00 0.00 61 1012.5
20260504014326 47 16 0.0 0.0 0.00 0.00 0.00 61 1012.5
20260504013824 47 16 0.0 0.0 0.00 0.00 0.00 60 1012.5
20260504013322 48 16 0.0 0.0 0.00 0.00 0.00 61 1012.5
20260504012818 48 16 0.0 0.0 0.00 0.00 0.00 62 1012.5
20260504012316 48 16 0.0 0.0 0.00 0.00 0.00 62 1012.5
20260504011813 48 12 0.0 0.0 0.00 0.00 0.00 59 1012.2
20260504011310 48 12 0.0 0.0 0.00 0.00 0.00 59 1012.2
20260504010805 48 16 0.0 0.0 0.00 0.00 0.00 58 1012.2
20260504010301 48 16 0.0 0.0 0.00 0.00 0.00 61 1012.2
20260504005758 48 16 0.0 0.0 0.00 0.00 0.00 59 1012.2
20260504005255 49 16 0.0 0.0 0.00 0.00 0.00 57 1012.2
20260504004753 49 16 0.0 0.0 0.00 0.00 0.00 56 1012.2
20260504004250 49 16 0.0 0.0 0.00 0.00 0.00 55 1012.2
20260504003746 49 16 0.0 0.0 0.00 0.00 0.00 54 1011.8
20260504003244 49 16 0.0 0.0 0.00 0.00 0.00 54 1011.5
20260504002740 50 16 0.0 0.0 0.00 0.00 0.00 53 1011.8
20260504002237 50 16 0.0 0.0 0.00 0.00 0.00 52 1011.8
20260504001735 50 16 0.0 0.0 0.00 0.00 0.00 53 1011.8
20260504001232 50 16 0.0 0.0 0.00 0.00 0.00 52 1011.8
20260504000728 51 16 0.0 0.0 0.00 0.00 0.00 51 1011.5
20260504000226 51 16 0.0 0.0 0.00 0.00 0.00 48 1011.5
20260503235724 52 16 0.0 0.0 0.00 0.00 0.00 49 1011.8
20260503235220 53 16 0.0 0.0 0.00 0.00 0.00 51 1011.5
20260503234718 53 16 0.0 0.0 0.00 0.00 0.00 50 1011.2
20260503234216 54 16 0.0 0.0 0.00 0.00 0.00 44 1011.2
20260503233713 54 16 0.0 0.0 0.00 0.00 0.00 41 1011.5
20260503233208 55 16 0.0 0.0 0.00 0.00 0.00 42 1011.5
20260503232705 55 16 0.0 0.0 0.00 0.00 0.00 40 1011.5
20260503232202 56 16 0.0 0.0 0.00 0.00 0.00 38 1011.2
20260503231701 57 16 0.0 0.0 0.00 0.00 0.00 38 1011.5
20260503231156 57 16 0.0 0.0 0.00 0.00 0.00 38 1011.2
20260503230653 57 16 0.0 0.0 0.00 0.00 0.00 37 1011.5
20260503230151 57 16 0.0 0.0 0.00 0.00 0.00 35 1011.2
20260503225648 57 12 0.0 0.0 0.00 0.00 0.00 36 1011.2
20260503225148 58 196 0.0 0.0 0.00 0.00 0.00 38 1011.2
20260503224645 58 65 1.7 1.7 0.00 0.00 0.00 37 1011.2
20260503224143 58 101 1.7 1.7 0.00 0.00 0.00 35 1011.2
20260503223641 59 0 0.0 0.0 0.00 0.00 0.00 37 1011.2
20260503223137 59 18 1.7 1.7 0.00 0.00 0.00 35 1011.2
20260503222634 59 96 2.6 2.6 0.00 0.00 0.00 37 1011.2
20260503222132 60 330 0.0 0.0 0.00 0.00 0.00 32 1011.2
20260503221630 60 27 0.0 0.0 0.00 0.00 0.00 32 1011.2
20260503221127 60 270 1.7 1.7 0.00 0.00 0.00 32 1011.2
20260503220624 61 139 0.0 0.0 0.00 0.00 0.00 33 1011.2
20260503220120 61 310 1.7 1.7 0.00 0.00 0.00 33 1011.2
20260503215618 62 294 0.0 0.0 0.00 0.00 0.00 31 1011.2
20260503215114 61 294 0.0 0.0 0.00 0.00 0.00 31 1011.2
20260503214613 61 193 0.0 0.0 0.00 0.00 0.00 33 1011.5
20260503214109 61 354 1.7 1.7 0.00 0.00 0.00 31 1011.5
20260503213608 61 294 0.0 0.0 0.00 0.00 0.00 34 1011.2
20260503213104 62 24 5.2 6.1 0.00 0.00 0.00 32 1011.2
20260503212602 61 139 1.7 1.7 0.00 0.00 0.00 33 1011.2
20260503212059 60 108 1.7 1.7 0.00 0.00 0.00 34 1011.2
20260503211556 61 241 0.9 0.9 0.00 0.00 0.00 31 1011.2
20260503211051 61 290 1.7 1.7 0.00 0.00 0.00 31 1011.2
20260503210548 61 306 1.7 1.7 0.00 0.00 0.00 32 1011.2
20260503210044 61 179 1.7 1.7 0.00 0.00 0.00 31 1011.2
20260503205541 61 311 1.7 1.7 0.00 0.00 0.00 35 1011.2
20260503205037 61 239 1.7 1.7 0.00 0.00 0.00 36 1011.2
20260503204534 60 17 0.0 0.0 0.00 0.00 0.00 34 1011.2
20260503204031 59 33 1.7 1.7 0.00 0.00 0.00 33 1011.2
20260503203529 60 238 0.9 0.9 0.00 0.00 0.00 31 1011.2
20260503203026 59 248 1.7 1.7 0.00 0.00 0.00 34 1011.5
20260503202523 60 296 0.0 0.0 0.00 0.00 0.00 33 1011.2
20260503202021 60 24 1.7 1.7 0.00 0.00 0.00 33 1011.2
20260503201519 59 266 0.0 0.0 0.00 0.00 0.00 32 1011.5
20260503201016 60 264 0.0 0.0 0.00 0.00 0.00 34 1011.5
20260503200512 61 288 1.7 1.7 0.00 0.00 0.00 31 1011.5
20260503200009 61 12 0.0 0.0 0.00 0.00 0.00 30 1011.2
20260503195506 60 47 0.0 0.0 0.00 0.00 0.00 31 1011.5
20260503195003 59 356 1.7 1.7 0.00 0.00 0.00 31 1011.5
20260503194500 60 344 3.5 3.5 0.00 0.00 0.00 32 1011.5
20260503193955 59 300 1.7 1.7 0.00 0.00 0.00 33 1011.5
20260503193451 59 186 0.9 0.9 0.00 0.00 0.00 32 1011.8
20260503192946 60 66 1.7 1.7 0.00 0.00 0.00 35 1011.5
20260503192443 59 84 1.7 1.7 0.00 0.00 0.00 37 1011.8
20260503191939 60 12 0.0 0.0 0.00 0.00 0.00 32 1011.8
20260503191437 60 299 3.5 4.3 0.00 0.00 0.00 31 1011.8
20260503190932 58 246 1.7 1.7 0.00 0.00 0.00 34 1012.2
20260503190430 58 349 1.7 1.7 0.00 0.00 0.00 34 1012.2
20260503185927 58 22 5.2 5.2 0.00 0.00 0.00 32 1011.8
20260503185424 59 257 2.6 2.6 0.00 0.00 0.00 32 1011.8
20260503184922 58 355 1.7 1.7 0.00 0.00 0.00 32 1012.2
20260503184420 58 257 2.6 2.6 0.00 0.00 0.00 32 1012.2
20260503183916 59 288 0.0 0.0 0.00 0.00 0.00 36 1012.2
20260503183412 58 6 1.7 1.7 0.00 0.00 0.00 32 1012.2
20260503182910 58 299 4.3 5.2 0.00 0.00 0.00 33 1011.8
20260503182409 58 334 3.5 3.5 0.00 0.00 0.00 31 1012.2
20260503181905 58 54 0.0 0.0 0.00 0.00 0.00 32 1012.2
20260503181402 58 144 1.7 1.7 0.00 0.00 0.00 32 1012.2
20260503180859 58 125 2.6 3.5 0.00 0.00 0.00 33 1012.2
20260503180357 57 53 1.7 1.7 0.00 0.00 0.00 35 1012.2
20260503175853 56 175 3.5 3.5 0.00 0.00 0.00 38 1012.5
20260503175351 56 151 0.0 0.0 0.00 0.00 0.00 34 1012.5
20260503174846 56 248 1.7 1.7 0.00 0.00 0.00 38 1012.5
20260503174345 57 113 3.5 3.5 0.00 0.00 0.00 35 1012.5
20260503173845 57 54 4.3 5.2 0.00 0.00 0.00 36 1012.5
20260503173342 56 50 1.7 1.7 0.00 0.00 0.00 36 1012.5
20260503172838 56 72 1.7 1.7 0.00 0.00 0.00 38 1012.5
20260503172336 56 50 5.2 5.2 0.00 0.00 0.00 37 1012.5
20260503171832 55 70 0.0 0.0 0.00 0.00 0.00 40 1012.2
20260503171329 55 68 0.0 0.0 0.00 0.00 0.00 38 1012.9
20260503170826 55 326 2.6 2.6 0.00 0.00 0.00 39 1012.9
20260503170322 55 243 1.7 1.7 0.00 0.00 0.00 40 1012.9
20260503150715 53 182 6.1 7.0 0.00 0.00 0.00 45 1012.9
20260503150211 51 318 1.7 1.7 0.00 0.00 0.00 48 1012.9
20260503140136 51 300 1.7 1.7 0.00 0.00 0.00 50 1012.9
20260503131105 50 197 1.7 1.7 0.00 0.00 0.00 59 1012.9
20260503130602 49 264 1.7 1.7 0.00 0.00 0.00 58 1012.9
20260503110452 45 288 0.0 0.0 0.00 0.00 0.00 72 1011.5